Fort Collins, CO

7:54 AM MST on February 25, 2017 (GMT -0700)
Fort Collins-Loveland Municipal

Weather History for KFNL - January, 2012

Change the Weather History Date:

Sunday, January 22, 2012

  Actual Average Record
Temperature  
Mean Temperature 35 °F -  
Max Temperature 46 °F - 66 °F (2009)
Min Temperature 21 °F - -5 °F (2008)
Degree Days  
Heating Degree Days 30    
Month to date heating degree days  
Cooling Degree Days 0    
Month to date cooling degree days  
Moisture  
Dew Point 17 °F    
Average Humidity 43    
Maximum Humidity 68    
Minimum Humidity 23    
Precipitation  
Precipitation 0.00 in - 2.45 in (2005)
Sea Level Pressure  
Sea Level Pressure 29.61 in    
Wind  
Wind Speed 15 mph (North)    
Max Wind Speed 34 mph    
Max Gust Speed 44 mph    
Visibility 10 miles    
Events      
T = Trace of Precipitation, MM = Missing Value Source: NWS Daily Summary

Daily Weather History Graph

Daily Weather History Graph

Search for Another Location

Airport or City:

Trip Planner

Search our weather history database for the weather conditions in past years. The results will help you decide how hot, cold, wet, or windy it might be!

Date:

Astronomy

Jan. 22, 2012 Rise Set
Actual Time 7:17 AM MST 5:05 PM MST
Civil Twilight 6:48 AM MST 5:35 PM MST
Nautical Twilight 6:15 AM MST 6:08 PM MST
Astronomical Twilight 5:42 AM MST 6:40 PM MST
Moon 6:36 AM MST (1/22) 4:50 PM MST (1/22)
Length of Visible Light 10h 46m
Length of Day
9h 47m
Waning Crescent, 0% of the Moon is Illuminated
Jan 22
Waning Crescent
Jan 23
New
Jan 30
First Quarter
Feb 7
Full
Feb 14
Last Quarter

Hourly Weather History & Observations

Time (MST) Temp. Windchill Dew Point Humidity Pressure Visibility Wind Dir Wind Speed Gust Speed Precip Events Conditions
12:15 AM 42.8 °F 36.6 °F 24.8 °F 49% 29.25 in 10.0 mi East 11.5 mph - N/A   Clear
12:35 AM 41.0 °F 33.9 °F 26.6 °F 57% 29.25 in 10.0 mi East 12.7 mph - N/A   Clear
12:55 AM 39.2 °F 32.5 °F 26.6 °F 61% 29.26 in 10.0 mi East 10.4 mph - N/A   Clear
1:15 AM 39.2 °F 34.2 °F 26.6 °F 61% 29.26 in 10.0 mi SSE 6.9 mph - N/A   Clear
1:55 AM 39.2 °F 34.2 °F 26.6 °F 61% 29.28 in 10.0 mi NE 6.9 mph - N/A   Clear
2:15 AM 39.2 °F 31.6 °F 26.6 °F 61% 29.30 in 10.0 mi NE 12.7 mph - N/A   Scattered Clouds
2:35 AM 37.4 °F 32.1 °F 26.6 °F 65% 29.30 in 10.0 mi ENE 6.9 mph - N/A   Mostly Cloudy
2:55 AM 39.2 °F 35.9 °F 24.8 °F 56% 29.31 in 10.0 mi NNW 4.6 mph - N/A   Overcast
3:15 AM 39.2 °F 32.5 °F 26.6 °F 61% 29.32 in 10.0 mi NW 10.4 mph - N/A   Overcast
3:35 AM 44.6 °F 38.1 °F 24.8 °F 46% 29.33 in 10.0 mi NW 13.8 mph - N/A   Overcast
3:55 AM 44.6 °F 34.4 °F 24.8 °F 46% 29.33 in 10.0 mi NW 32.2 mph 39.1 mph N/A   Mostly Cloudy
4:55 AM 44.6 °F 34.7 °F 21.2 °F 39% 29.36 in 10.0 mi NW 29.9 mph 40.3 mph N/A   Clear
5:15 AM 44.6 °F 36.1 °F 19.4 °F 37% 29.39 in 10.0 mi NW 21.9 mph 35.7 mph N/A   Scattered Clouds
5:35 AM 44.6 °F 36.6 °F 19.4 °F 37% 29.41 in 10.0 mi NW 19.6 mph 31.1 mph N/A   Mostly Cloudy
5:55 AM 44.6 °F 36.9 °F 19.4 °F 37% 29.41 in 10.0 mi WNW 18.4 mph 25.3 mph N/A   Overcast
6:15 AM 44.6 °F 35.9 °F 19.4 °F 37% 29.44 in 10.0 mi NW 23.0 mph 34.5 mph N/A   Overcast
6:35 AM 42.8 °F 35.1 °F 19.4 °F 39% 29.47 in 10.0 mi NW 16.1 mph 29.9 mph N/A   Overcast
6:55 AM 42.8 °F 33.5 °F 19.4 °F 39% 29.49 in 10.0 mi NW 23.0 mph 36.8 mph N/A   Overcast
7:55 AM 41.0 °F 30.2 °F 17.6 °F 39% 29.56 in 10.0 mi NW 27.6 mph 38.0 mph N/A   Overcast
8:15 AM 39.2 °F 26.6 °F 17.6 °F 42% 29.58 in 10.0 mi NW 34.5 mph 43.7 mph N/A   Mostly Cloudy
8:35 AM 39.2 °F 28.3 °F 17.6 °F 42% 29.61 in 10.0 mi NW 25.3 mph 36.8 mph N/A   Partly Cloudy
8:55 AM 39.2 °F 28.0 °F 17.6 °F 42% 29.63 in 10.0 mi NW 26.5 mph 31.1 mph N/A   Clear
9:15 AM 39.2 °F 29.3 °F 19.4 °F 45% 29.65 in 10.0 mi NW 20.7 mph - N/A   Clear
9:35 AM 41.0 °F 32.2 °F 17.6 °F 39% 29.67 in 10.0 mi NW 18.4 mph 29.9 mph N/A   Clear
9:55 AM 42.8 °F 34.5 °F 17.6 °F 36% 29.69 in 10.0 mi NW 18.4 mph 29.9 mph N/A   Clear
10:15 AM 42.8 °F 34.0 °F 17.6 °F 36% 29.70 in 10.0 mi NW 20.7 mph 24.2 mph N/A   Clear
10:35 AM 42.8 °F 34.8 °F 17.6 °F 36% 29.70 in 10.0 mi NW 17.3 mph 24.2 mph N/A   Clear
10:55 AM 44.6 °F 36.1 °F 17.6 °F 34% 29.70 in 10.0 mi NNW 21.9 mph 27.6 mph N/A   Partly Cloudy
11:15 AM 44.6 °F 35.9 °F 14.0 °F 29% 29.70 in 10.0 mi NW 23.0 mph 34.5 mph N/A   Partly Cloudy
11:35 AM 44.6 °F 36.6 °F 15.8 °F 31% 29.69 in 10.0 mi NW 19.6 mph 32.2 mph N/A   Clear
11:55 AM 46.4 °F 39.2 °F 15.8 °F 29% 29.68 in 10.0 mi NNW 18.4 mph 27.6 mph N/A   Clear
12:15 PM 44.6 °F 36.9 °F 15.8 °F 31% 29.67 in 10.0 mi NW 18.4 mph 26.5 mph N/A   Clear
12:35 PM 46.4 °F 38.7 °F 14.0 °F 27% 29.67 in 10.0 mi NNW 20.7 mph 27.6 mph N/A   Clear
1:15 PM 46.4 °F 39.8 °F 14.0 °F 27% 29.66 in 10.0 mi North 16.1 mph - N/A   Clear
1:35 PM 46.4 °F 38.7 °F 10.4 °F 23% 29.66 in 10.0 mi WSW 20.7 mph 27.6 mph N/A   Clear
1:55 PM 46.4 °F 41.5 °F 10.4 °F 23% 29.67 in 10.0 mi West 10.4 mph 26.5 mph N/A   Clear
2:15 PM 44.6 °F 35.7 °F 8.6 °F 23% 29.68 in 10.0 mi NW 24.2 mph 38.0 mph N/A   Clear
2:35 PM 42.8 °F 33.3 °F 10.4 °F 27% 29.69 in 10.0 mi NNW 24.2 mph 34.5 mph N/A   Clear
2:55 PM 42.8 °F 32.9 °F 10.4 °F 27% 29.70 in 10.0 mi NNW 26.5 mph 35.7 mph N/A   Clear
3:15 PM 41.0 °F 31.4 °F 12.2 °F 31% 29.70 in 10.0 mi NNW 21.9 mph - N/A   Clear
3:35 PM 41.0 °F 31.9 °F 10.4 °F 29% 29.71 in 10.0 mi NNW 19.6 mph 26.5 mph N/A   Clear
3:55 PM 39.2 °F 30.2 °F 10.4 °F 31% 29.72 in 10.0 mi North 17.3 mph - N/A   Clear
4:15 PM 39.2 °F 30.8 °F 10.4 °F 31% 29.74 in 10.0 mi North 15.0 mph - N/A   Clear
4:35 PM 37.4 °F 30.8 °F 10.4 °F 33% 29.74 in 10.0 mi North 9.2 mph - N/A   Clear
5:55 PM 33.8 °F 27.7 °F 10.4 °F 38% 29.79 in 10.0 mi East 6.9 mph - N/A   Clear
6:15 PM 30.2 °F 20.8 °F 12.2 °F 47% 29.79 in 10.0 mi SSE 11.5 mph - N/A   Clear
6:35 PM 30.2 °F 21.3 °F 12.2 °F 47% 29.80 in 10.0 mi ESE 10.4 mph - N/A   Clear
6:55 PM 28.4 °F 19.7 °F 12.2 °F 51% 29.80 in 10.0 mi ESE 9.2 mph - N/A   Clear
7:35 PM 30.2 °F 19.8 °F 10.4 °F 44% 29.82 in 10.0 mi SE 13.8 mph - N/A   Clear
7:55 PM 28.4 °F 20.4 °F 12.2 °F 51% 29.83 in 10.0 mi SE 8.1 mph - N/A   Clear
8:15 PM 26.6 °F 17.5 °F 14.0 °F 59% 29.83 in 10.0 mi SE 9.2 mph - N/A   Clear
8:55 PM 24.8 °F 13.4 °F 14.0 °F 64% 29.83 in 10.0 mi ESE 12.7 mph - N/A   Clear
9:15 PM 26.6 °F 15.2 °F 12.2 °F 55% 29.84 in 10.0 mi ESE 13.8 mph - N/A   Clear
9:35 PM 26.6 °F 15.2 °F 12.2 °F 55% 29.84 in 10.0 mi ESE 13.8 mph - N/A   Clear
9:55 PM 24.8 °F 12.9 °F 14.0 °F 64% 29.83 in 10.0 mi ESE 13.8 mph - N/A   Clear
10:15 PM 24.8 °F 12.4 °F 12.2 °F 59% 29.83 in 10.0 mi ESE 15.0 mph - N/A   Clear
11:15 PM 24.8 °F 17.9 °F 14.0 °F 64% 29.85 in 10.0 mi East 5.8 mph - N/A   Clear
11:35 PM 24.8 °F 17.9 °F 14.0 °F 64% 29.86 in 10.0 mi ESE 5.8 mph - N/A   Clear
11:55 PM 21.2 °F 14.9 °F 12.2 °F 68% 29.85 in 10.0 mi ENE 4.6 mph - N/A   Clear